Location: Killam
(52.7910°N, 111.8608°W)
Time: 16:22:25
(UTC+00:00)

Vanguard 2 Rocket - Pass Details

Date: 21 February 2026
Orbit: 553 x 3286 km, 32.9° (Epoch: 11 March)

Event Time Altitude Azimuth Distance (km) Brightness Sun altitude
Rises 00:17:21 0° 266° (W) 6,559 12.9 3.8°
Reaches altitude 10° 00:24:13 10° 251° (WSW) 5,008 13.4 2.8°
Maximum altitude 00:31:35 17° 218° (SW) 3,754 11.1 1.8°
Drops below altitude 10° 00:37:15 10° 182° (S) 3,666 10.3 1.0°
Sets 00:41:06 0° 162° (SSE) 4,191 10.3 0.4°
